TimePDT,TemperatureF,Dew PointF,Humidity,Sea Level PressureIn,VisibilityMPH,Wind Direction,Wind SpeedMPH,Gust SpeedMPH,PrecipitationIn,Events,Conditions,WindDirDegrees,DateUTC
12:04 AM,55.4,53.6,94,29.93,9.0,Calm,Calm,-,N/A,,Mostly Cloudy,0,2013-08-20 07:04:00
12:22 AM,57.2,53.6,88,29.93,10.0,Calm,Calm,-,N/A,,Overcast,0,2013-08-20 07:22:00
12:46 AM,55.4,53.6,94,29.93,10.0,NW,3.5,-,N/A,,Overcast,310,2013-08-20 07:46:00
12:55 AM,55.9,53.1,90,29.91,10.0,NW,3.5,-,N/A,,Overcast,310,2013-08-20 07:55:00
1:40 AM,55.4,55.4,100,29.92,2.0,Calm,Calm,-,N/A,,Overcast,0,2013-08-20 08:40:00
1:43 AM,55.4,53.6,94,29.92,1.5,Calm,Calm,-,N/A,,Overcast,0,2013-08-20 08:43:00
1:48 AM,55.4,55.4,100,29.92,1.0,Calm,Calm,-,N/A,,Mist,0,2013-08-20 08:48:00
1:55 AM,55.9,55.0,97,29.89,1.2,Calm,Calm,-,N/A,,Overcast,0,2013-08-20 08:55:00
2:01 AM,55.4,55.4,100,29.91,1.8,Calm,Calm,-,N/A,,Overcast,0,2013-08-20 09:01:00
2:10 AM,55.4,55.4,100,29.91,1.2,NNE,3.5,-,N/A,,Overcast,20,2013-08-20 09:10:00
2:30 AM,55.4,53.6,94,29.91,0.8,Calm,Calm,-,N/A,,Mist,0,2013-08-20 09:30:00
2:42 AM,55.4,53.6,94,29.91,1.2,East,3.5,-,N/A,,Overcast,90,2013-08-20 09:42:00
2:48 AM,55.4,53.6,94,29.91,1.8,Calm,Calm,-,N/A,,Overcast,0,2013-08-20 09:48:00
2:55 AM,55.9,55.0,97,29.88,1.2,Calm,Calm,-,N/A,,Overcast,0,2013-08-20 09:55:00
3:12 AM,55.4,55.4,100,29.91,1.8,NE,3.5,-,N/A,,Overcast,40,2013-08-20 10:12:00
3:15 AM,55.4,55.4,100,29.91,2.5,NNE,3.5,-,N/A,,Overcast,30,2013-08-20 10:15:00
3:22 AM,55.4,53.6,94,29.91,3.0,NNE,3.5,-,N/A,,Overcast,30,2013-08-20 10:22:00
3:34 AM,55.4,53.6,94,29.91,2.0,East,3.5,-,N/A,,Overcast,80,2013-08-20 10:34:00
3:55 AM,55.9,54.0,93,29.88,2.5,Calm,Calm,-,N/A,,Overcast,0,2013-08-20 10:55:00
4:06 AM,55.4,53.6,94,29.91,1.8,Calm,Calm,-,N/A,,Overcast,0,2013-08-20 11:06:00
4:12 AM,55.4,53.6,94,29.91,1.2,Calm,Calm,-,N/A,,Overcast,0,2013-08-20 11:12:00
4:34 AM,55.4,53.6,94,29.91,1.0,South,3.5,-,N/A,,Mist,170,2013-08-20 11:34:00
4:41 AM,55.4,53.6,94,29.91,0.8,SSE,3.5,-,N/A,,Mist,160,2013-08-20 11:41:00
4:55 AM,55.0,54.0,96,29.89,1.2,Calm,Calm,-,N/A,,Overcast,0,2013-08-20 11:55:00
5:02 AM,55.4,53.6,94,29.92,1.0,Calm,Calm,-,N/A,,Mist,0,2013-08-20 12:02:00
5:06 AM,55.4,53.6,94,29.92,0.5,WSW,3.5,-,N/A,Fog,Fog,240,2013-08-20 12:06:00
5:28 AM,55.4,53.6,94,29.92,0.8,Calm,Calm,-,N/A,,Mist,0,2013-08-20 12:28:00
5:43 AM,55.4,55.4,100,29.93,0.5,Calm,Calm,-,N/A,Fog,Fog,0,2013-08-20 12:43:00
5:55 AM,55.0,55.0,100,29.91,0.5,Calm,Calm,-,N/A,Fog,Fog,0,2013-08-20 12:55:00
6:18 AM,55.4,55.4,100,29.93,1.0,Calm,Calm,-,N/A,,Mist,0,2013-08-20 13:18:00
6:23 AM,55.4,55.4,100,29.94,1.5,Calm,Calm,-,N/A,,Overcast,0,2013-08-20 13:23:00
6:31 AM,55.4,55.4,100,29.94,1.8,Calm,Calm,-,N/A,,Overcast,0,2013-08-20 13:31:00
6:37 AM,55.4,55.4,100,29.94,2.5,Calm,Calm,-,N/A,,Overcast,0,2013-08-20 13:37:00
6:47 AM,55.4,53.6,94,29.94,1.8,Calm,Calm,-,N/A,,Overcast,0,2013-08-20 13:47:00
6:55 AM,55.9,54.0,93,29.92,0.5,Calm,Calm,-,N/A,Fog,Fog,0,2013-08-20 13:55:00
7:21 AM,55.4,55.4,100,29.95,1.0,Calm,Calm,-,N/A,,Overcast,0,2013-08-20 14:21:00
7:44 AM,55.4,53.6,94,29.96,1.8,NNW,4.6,-,N/A,,Overcast,330,2013-08-20 14:44:00
7:55 AM,55.9,54.0,93,29.93,2.0,Calm,Calm,-,N/A,,Overcast,0,2013-08-20 14:55:00
8:12 AM,57.2,55.4,94,29.96,3.0,Calm,Calm,-,N/A,,Overcast,0,2013-08-20 15:12:00
8:55 AM,57.9,55.0,90,29.95,4.0,Calm,Calm,-,N/A,,Overcast,0,2013-08-20 15:55:00
9:55 AM,59.0,55.0,87,29.95,5.0,Calm,Calm,-,N/A,,Overcast,0,2013-08-20 16:55:00
10:27 AM,60.8,55.4,82,29.96,6.0,Variable,3.5,-,N/A,,Mostly Cloudy,0,2013-08-20 17:27:00
10:40 AM,62.6,55.4,77,29.96,8.0,Calm,Calm,-,N/A,,Scattered Clouds,0,2013-08-20 17:40:00
10:55 AM,64.9,54.0,68,29.93,10.0,NNW,3.5,-,N/A,,Scattered Clouds,340,2013-08-20 17:55:00
11:55 AM,66.0,55.0,68,29.92,10.0,WSW,9.2,-,N/A,,Scattered Clouds,250,2013-08-20 18:55:00
12:55 PM,66.0,54.0,65,29.91,10.0,West,8.1,-,N/A,,Scattered Clouds,260,2013-08-20 19:55:00
1:55 PM,64.9,54.0,68,29.91,10.0,West,9.2,-,N/A,,Scattered Clouds,270,2013-08-20 20:55:00
2:55 PM,64.9,53.1,65,29.90,10.0,WSW,10.4,16.1,N/A,,Scattered Clouds,240,2013-08-20 21:55:00
3:55 PM,66.0,54.0,65,29.89,10.0,West,10.4,-,N/A,,Partly Cloudy,270,2013-08-20 22:55:00
4:55 PM,66.0,53.1,63,29.88,10.0,West,8.1,-,N/A,,Clear,280,2013-08-20 23:55:00
5:55 PM,64.0,54.0,70,29.88,10.0,West,5.8,-,N/A,,Clear,270,2013-08-21 00:55:00
6:55 PM,63.0,53.1,70,29.88,10.0,WNW,5.8,-,N/A,,Clear,300,2013-08-21 01:55:00
7:55 PM,59.0,53.1,81,29.89,10.0,North,4.6,-,N/A,,Clear,350,2013-08-21 02:55:00
8:55 PM,57.9,52.0,81,29.91,10.0,North,3.5,-,N/A,,Clear,350,2013-08-21 03:55:00
9:40 PM,55.4,51.8,88,29.95,10.0,WNW,3.5,-,N/A,,Mostly Cloudy,290,2013-08-21 04:40:00
9:55 PM,55.9,52.0,87,29.92,10.0,WNW,4.6,-,N/A,,Overcast,290,2013-08-21 04:55:00
10:07 PM,57.2,53.6,88,29.95,10.0,WNW,3.5,-,N/A,,Overcast,290,2013-08-21 05:07:00
10:55 PM,57.0,52.0,83,29.92,10.0,Calm,Calm,-,N/A,,Overcast,0,2013-08-21 05:55:00
11:21 PM,55.4,51.8,88,29.94,10.0,Calm,Calm,-,N/A,,Scattered Clouds,0,2013-08-21 06:21:00
11:55 PM,54.0,50.0,86,29.91,10.0,Calm,Calm,-,N/A,,Clear,0,2013-08-21 06:55:00